Location: Newark
(57.7279°N, 5.6916°W)
Time: 16:53:36
(UTC+00:00)

Envisat - Visible Passes

Search period start: 07 December 2019 00:00
Search period end: 17 December 2019 00:00
Orbit: 764 x 766 km, 98.1° (Epoch: 07 December)

Date Brightness Start Highest point End Pass type
(mag) Time Alt. Az. Time Alt. Az. Time Alt. Az.
07 Dec 5.0 06:29:53 10° NNE 06:34:23 30° E 06:38:50 10° SSE visible
07 Dec 2.9 17:52:46 10° SSE 17:57:52 86° ENE 18:02:59 10° NNW visible
07 Dec 5.5 19:33:47 10° SW 19:37:35 21° W 19:41:23 10° NW visible
08 Dec 5.9 05:53:48 10° NE 05:57:08 17° E 06:00:27 10° SE visible
08 Dec 3.2 07:31:52 10° NNE 07:37:00 80° ESE 07:42:06 10° SSW visible
08 Dec 3.2 17:16:17 10° SE 17:21:10 50° ENE 17:26:06 10° N visible
08 Dec 4.5 18:55:43 10° SSW 19:00:24 36° W 19:05:06 10° NNW visible
09 Dec 4.2 06:55:11 10° NNE 07:00:05 45° E 07:04:57 10° S visible
09 Dec 3.7 16:40:15 10° ESE 16:44:39 30° NE 16:49:04 10° N visible
09 Dec 3.4 18:18:21 10° S 18:23:24 65° WSW 18:28:30 10° NNW visible
09 Dec 6.0 20:00:55 10° WSW 20:03:28 14° W 20:06:03 10° NW visible
10 Dec 5.3 06:18:44 10° NE 06:22:59 26° E 06:27:11 10° SE visible
10 Dec 3.0 07:57:25 10° NNE 08:02:30 70° WNW 08:07:33 10° SSW visible
10 Dec 2.9 17:41:31 10° SSE 17:46:35 73° ENE 17:51:41 10° NNW visible
10 Dec 5.2 19:22:02 10° SW 19:26:10 24° W 19:30:18 10° NW visible
11 Dec 6.0 05:42:54 10° NE 05:45:40 14° E 05:48:25 10° ESE visible
11 Dec 3.4 07:20:36 10° NNE 07:25:42 68° ESE 07:30:46 10° S visible
11 Dec 3.3 17:05:10 10° SE 17:09:57 43° ENE 17:14:45 10° N visible
11 Dec 4.2 18:44:12 10° S 18:49:01 43° W 18:53:54 10° NNW visible
12 Dec 4.6 06:43:58 10° NNE 06:48:43 38° E 06:53:27 10° SSE visible
12 Dec 3.9 16:29:17 10° ESE 16:33:28 27° NE 16:37:40 10° N visible
12 Dec 3.1 18:07:00 10° SSE 18:12:05 76° WSW 18:17:13 10° NNW visible
12 Dec 5.8 19:48:50 10° WSW 19:52:01 16° W 19:55:12 10° NW visible
13 Dec 5.6 06:07:39 10° NE 06:11:34 22° E 06:15:27 10° SE visible
13 Dec 3.0 07:46:07 10° NNE 07:51:14 82° WNW 07:56:20 10° SSW visible
13 Dec 3.0 17:30:19 10° SSE 17:35:20 62° ENE 17:40:22 10° NNW visible
13 Dec 4.9 19:10:22 10° SSW 19:14:45 29° W 19:19:10 10° NNW visible
14 Dec 6.2 05:32:15 10° ENE 05:34:12 12° E 05:36:09 10° ESE visible
14 Dec 3.8 07:09:21 10° NNE 07:14:23 57° E 07:19:23 10° S visible
14 Dec 3.5 16:54:06 10° SE 16:58:44 37° ENE 17:03:23 10° N visible
14 Dec 3.9 18:32:44 10° S 18:37:41 51° W 18:42:40 10° NNW visible
14 Dec 6.2 20:16:56 10° W 20:17:58 11° WNW 20:19:00 10° WNW visible
15 Dec 4.9 06:32:46 10° NNE 06:37:21 32° E 06:41:53 10° SSE visible
15 Dec 3.0 17:55:42 10° SSE 18:00:48 89° WSW 18:05:56 10° NNW visible
15 Dec 5.6 19:36:56 10° SW 19:40:34 19° W 19:44:13 10° NW visible
16 Dec 5.8 05:56:37 10° NE 06:00:08 18° E 06:03:37 10° SE visible
16 Dec 3.1 07:34:48 10° NNE 07:39:57 85° ESE 07:45:03 10° SSW visible
16 Dec 3.1 17:19:09 10° SE 17:24:05 53° ENE 17:29:02 10° N visible
16 Dec 4.6 18:58:45 10° SSW 19:03:22 34° W 19:08:00 10° NNW visible
